This is the latest recevied weather packets stored in our database for station/object K4PAD. If no packets are shown the sender has not sent any weather packets the latest 10 day(s).
| Time | Temp. | Humidity | Pressure | Rain* | Wind** | Luminosity | Snow |
|---|---|---|---|---|---|---|---|
| 1778029762 | 22.22° C | 61% | 1016.9 hPa | 0 mm | - | 0 W/m² | - |
| 1778029461 | 22.22° C | 61% | 1016.9 hPa | 0 mm | - | 0 W/m² | - |
| 1778029156 | 22.22° C | 61% | 1017.2 hPa | 0 mm | - | 0 W/m² | - |
| 1778028855 | 22.22° C | 60% | 1017.1 hPa | 0 mm | - | 0 W/m² | - |
| 1778028549 | 22.78° C | 59% | 1017.1 hPa | 0 mm | - | 0 W/m² | - |
| 1778028248 | 22.78° C | 59% | 1017 hPa | 0 mm | - | 0 W/m² | - |
| 1778027943 | 22.78° C | 58% | 1017 hPa | 0 mm | - | 0 W/m² | - |
| 1778027639 | 22.78° C | 58% | 1017.1 hPa | 0 mm | - | 0 W/m² | - |
| 1778027336 | 22.78° C | 57% | 1017.1 hPa | 0 mm | - | 0 W/m² | - |
| 1778027032 | 22.78° C | 57% | 1017.1 hPa | 0 mm | - | 0 W/m² | - |
| 1778026728 | 23.33° C | 56% | 1017 hPa | 0 mm | - | 1 W/m² | - |
| 1778026425 | 23.33° C | 56% | 1016.9 hPa | 0 mm | - | 1 W/m² | - |
| 1778026122 | 23.33° C | 55% | 1016.7 hPa | 0 mm | - | 3 W/m² | - |
| 1778025819 | 23.33° C | 54% | 1016.7 hPa | 0 mm | - | 6 W/m² | - |
| 1778025516 | 23.89° C | 54% | 1016.8 hPa | 0 mm | - | 10 W/m² | - |
| 1778025213 | 23.89° C | 53% | 1016.5 hPa | 0 mm | - | 15 W/m² | - |
| 1778024910 | 23.89° C | 53% | 1016.6 hPa | 0 mm | - | 19 W/m² | - |
| 1778024608 | 23.89° C | 52% | 1016.5 hPa | 0 mm | - | 25 W/m² | - |
| 1778024305 | 24.44° C | 51% | 1016.5 hPa | 0 mm | - | 32 W/m² | - |
| 1778024003 | 24.44° C | 50% | 1016.5 hPa | 0 mm | - | 42 W/m² | - |
| 1778023700 | 25° C | 49% | 1016.4 hPa | 0 mm | - | 48 W/m² | - |
| 1778023397 | 25° C | 49% | 1016.5 hPa | 0 mm | - | 50 W/m² | - |
| 1778023094 | 25° C | 49% | 1016.5 hPa | 0 mm | - | 58 W/m² | - |
| 1778022792 | 25.56° C | 48% | 1016.5 hPa | 0 mm | - | 58 W/m² | - |
| 1778022490 | 25.56° C | 47% | 1016.4 hPa | 0 mm | - | 82 W/m² | - |
* Rain latest hour (hover to see other rain measurements)
** Current wind speed in m/s (hover to see current wind gust speed)